Regional Weather Roundup
Issued by NWS

Home | Current Version | Previous Version | Graphics & Text | Print | Product List | Glossary On
Versions: 1 2 3 4 5 6 7 8 9 10 11 12 13 14 15 16 17 18 19 20 21 22 23 24 25 26 27 28 29 30 31 32 33 34 35 36 37 38 39 40 41 42 43 44 45 46 47 48 49 50
896
ASUS43 KIND 221009
RWRIN

WEATHER ROUNDUP FOR INDIANA
NATIONAL WEATHER SERVICE INDIANAPOLIS IN
600 AM EDT THU JUN 22 2017

NOTE: "FAIR" INDICATES FEW OR NO CLOUDS BELOW 12,000 FEET WITH NO
SIGNIFICANT WEATHER AND/OR OBSTRUCTIONS TO VISIBILITY.

* - STATION DOES NOT REPORT WEATHER SUCH AS PRECIPITATION OR FOG.

+ - STATION NOT QUALITY CONTROLLED BY THE NATIONAL WEATHER SERVICE.
    USE DATA WITH CAUTION...ESPECIALLY DEWPOINT AND RELATIVE
    HUMIDITY OBSERVATIONS.

INZ001>003-010>013-019-020-221100-
NORTHWEST INDIANA

CITY           SKY/WX    TMP DP  RH WIND       PRES   REMARKS
GARY /AIRPORT/ MOCLDY    77  66  69 SW9G23    29.86F
KNOX *+        CLOUDY    73  59  60 SW12      29.89S
LA PORTE +     CLOUDY    74  67  79 SW7       29.89F
MICHIGAN CITY+ CLOUDY    73  66  78 S7        29.87F
MONTICELLO +   CLOUDY    74  68  81 SW10      29.91F
RENSSELAER +   CLOUDY    73  66  78 SW12      29.90F
VALPARAISO     CLOUDY    77  68  73 SW13      29.88F

$$

LMZ046-743>745-221100-
SOUTHERN LAKE MICHIGAN

STATION/POSITION TIME  TEMP    WIND        PRES    WAVE
                       AIR SEA DIR/SP/G            HT
                 (UTC) (F)     (DEG/KT/KT) (MB)    (FT)
BURNS HARBOR     0940   77     210/ 16/ 23 1011.2F
MICHIGAN CITY    0940   76     190/ 13/ 15   N/A
5NW MICH CITY    1000   74 68  210/ 14/ 16   N/A     1

$$

INZ004-005-014>016-021>024-221100-
NORTH CENTRAL INDIANA

CITY           SKY/WX    TMP DP  RH WIND       PRES   REMARKS
GOSHEN         CLOUDY    73  65  75 SW9       29.90F
LOGANSPORT +   CLOUDY    73  68  83 SW7       29.94R
PERU/GRISSOM   CLOUDY    74  71  92 SW9       29.92S
ROCHESTER +    CLOUDY    77  68  73 SW8       29.92S
SOUTH BEND     CLOUDY    73  67  81 SW10      29.89F
WARSAW +       CLOUDY    72  64  78 SW5       29.92S

$$

INZ006>009-017-018-025>027-221100-
NORTHEAST INDIANA

CITY           SKY/WX    TMP DP  RH WIND       PRES   REMARKS
AUBURN +       MOCLDY    66  59  77 CALM      29.93F
FORT WAYNE     CLOUDY    73  68  84 SW10      29.94S
KENDALLVILLE + CLOUDY    67  60  78 S5        29.93F

$$

INZ028-029-035-036-043>045-051>053-221100-
WEST CENTRAL INDIANA

CITY           SKY/WX    TMP DP  RH WIND       PRES   REMARKS
CRAWFORDSVL +  PTCLDY   -31 -31 100 S6        29.94F WCI -48
GREENCASTLE +  PTCLDY    72  64  78 S5        29.96S
LAFAYETTE      CLOUDY    73  68  84 SW5       29.92S
TERRE HAUTE    PTCLDY    72  66  81 S7        29.94F

$$

INZ030>032-037>040-046>048-054>057-064-065-221100-
CENTRAL INDIANA

CITY           SKY/WX    TMP DP  RH WIND       PRES   REMARKS
CP ATTERBURY + PTCLDY    66  64  94 E3        29.98S
FRANKFORT +    PTCLDY    74  69  86 SW5       29.96S
GREENWOOD *+   PTCLDY    71  66  83 S5        29.98S
INDIANAPOLIS   MOCLDY    72  67  84 S7        29.95F
-EAGLE CREEK   PTCLDY    73  66  78 SW5       29.95F
KOKOMO +       MOCLDY    74  67  78 SW13      29.95S
MARION +       PTCLDY    72  66  83 SW8       29.96S HAZE
MT COMFORT *+  MOCLDY    70  66  88 S5        29.98F
SHELBYVILLE    PTCLDY    72  66  81 S7        29.97S
ZIONSVILLE +   CLOUDY    72  66  83 SW7       29.96F

$$

INZ033-034-041-042-049-050-058-059-221100-
EAST CENTRAL INDIANA

CITY           SKY/WX    TMP DP  RH WIND       PRES   REMARKS
MUNCIE         PTCLDY    74  67  78 SW9       29.96F
RICHMOND +     CLOUDY    70  64  83 SW7       30.00F

$$

INZ060-061-067>069-081>083-085>088-221100-
SOUTHWEST INDIANA

CITY           SKY/WX    TMP DP  RH WIND       PRES   REMARKS
EVANSVILLE     MOCLDY    73  67  81 S7        29.97F
HUNTINGBURG *+ CLOUDY    72  68  87 S5        29.99R
WASHINGTON +   PTCLDY    68  66  94 S5        29.96S

$$

INZ062-063-066-070>080-084-089>092-221100-
SOUTH CENTRAL AND SOUTHEAST INDIANA

CITY           SKY/WX    TMP DP  RH WIND       PRES   REMARKS
BLOOMINGTON    MOCLDY    70  64  81 CALM      29.97F
MADISON *+     CLOUDY    72  66  83 CALM      30.03S

$$





USA.gov is the U.S. government's official web portal to all federal, state and local government web resources and services.